owner,sensor,date,latitude,longitude,air_temperature,qcFlag 
COMPS,ioos:station:USF.COMPS:TAR:1,2010-12-01T00:00:00Z,28.1560,-82.7580,24.1,1111122 
COMPS,ioos:station:USF.COMPS:TAR:1,2010-12-01T00:06:00Z,28.1560,-82.7580,23.8,1111122 
COMPS,ioos:station:USF.COMPS:TAR:1,2010-12-01T00:12:00Z,28.1560,-82.7580,23.62,1111122 
COMPS,ioos:station:USF.COMPS:TAR:1,2010-12-01T00:18:00Z,28.1560,-82.7580,23.45,1111122 
COMPS,ioos:station:USF.COMPS:TAR:1,2010-12-01T00:24:00Z,28.1560,-82.7580,23.54,1111122 
COMPS,ioos:station:USF.COMPS:TAR:1,2010-12-01T00:30:00Z,28.1560,-82.7580,23.32,1111122 
COMPS,ioos:station:USF.COMPS:TAR:1,2010-12-01T00:36:00Z,28.1560,-82.7580,23.12,1111122 
COMPS,ioos:station:USF.COMPS:TAR:1,2010-12-01T00:42:00Z,28.1560,-82.7580,23.04,1111122 
COMPS,ioos:station:USF.COMPS:TAR:1,2010-12-01T00:48:00Z,28.1560,-82.7580,22.93,1111122 
COMPS,ioos:station:USF.COMPS:TAR:1,2010-12-01T00:54:00Z,28.1560,-82.7580,23.06,1111122 
COMPS,ioos:station:USF.COMPS:TAR:1,2010-12-01T01:00:00Z,28.1560,-82.7580,23.1,1111122 
COMPS,ioos:station:USF.COMPS:TAR:1,2010-12-01T01:06:00Z,28.1560,-82.7580,23.04,1111122 
COMPS,ioos:station:USF.COMPS:TAR:1,2010-12-01T01:12:00Z,28.1560,-82.7580,23.04,1111122 
COMPS,ioos:station:USF.COMPS:TAR:1,2010-12-01T01:18:00Z,28.1560,-82.7580,23.04,1111122 
COMPS,ioos:station:USF.COMPS:TAR:1,2010-12-01T01:24:00Z,28.1560,-82.7580,23.3,1111122 
COMPS,ioos:station:USF.COMPS:TAR:1,2010-12-01T01:30:00Z,28.1560,-82.7580,23.25,1111122 
COMPS,ioos:station:USF.COMPS:TAR:1,2010-12-01T01:36:00Z,28.1560,-82.7580,23.19,1111122 
COMPS,ioos:station:USF.COMPS:TAR:1,2010-12-01T01:42:00Z,28.1560,-82.7580,23.27,1111122 
COMPS,ioos:station:USF.COMPS:TAR:1,2010-12-01T01:48:00Z,28.1560,-82.7580,23.37,1111122 
COMPS,ioos:station:USF.COMPS:TAR:1,2010-12-01T01:54:00Z,28.1560,-82.7580,23.55,1111122 
COMPS,ioos:station:USF.COMPS:TAR:1,2010-12-01T02:00:00Z,28.1560,-82.7580,23.6,1111122 
COMPS,ioos:station:USF.COMPS:TAR:1,2010-12-01T02:06:00Z,28.1560,-82.7580,23.45,1111122 
COMPS,ioos:station:USF.COMPS:TAR:1,2010-12-01T02:12:00Z,28.1560,-82.7580,23.58,1111122 
COMPS,ioos:station:USF.COMPS:TAR:1,2010-12-01T02:18:00Z,28.1560,-82.7580,23.59,1111122 
COMPS,ioos:station:USF.COMPS:TAR:1,2010-12-01T02:24:00Z,28.1560,-82.7580,23.73,1111122 
COMPS,ioos:station:USF.COMPS:TAR:1,2010-12-01T02:30:00Z,28.1560,-82.7580,23.85,1111122 
COMPS,ioos:station:USF.COMPS:TAR:1,2010-12-01T02:36:00Z,28.1560,-82.7580,23.84,1111122 
COMPS,ioos:station:USF.COMPS:TAR:1,2010-12-01T02:42:00Z,28.1560,-82.7580,23.78,1111122 
COMPS,ioos:station:USF.COMPS:TAR:1,2010-12-01T02:48:00Z,28.1560,-82.7580,23.85,1111122 
COMPS,ioos:station:USF.COMPS:TAR:1,2010-12-01T02:54:00Z,28.1560,-82.7580,23.86,1111122 
COMPS,ioos:station:USF.COMPS:TAR:1,2010-12-01T03:00:00Z,28.1560,-82.7580,23.9,1111122 
COMPS,ioos:station:USF.COMPS:TAR:1,2010-12-01T03:06:00Z,28.1560,-82.7580,23.94,1111122 
COMPS,ioos:station:USF.COMPS:TAR:1,2010-12-01T03:12:00Z,28.1560,-82.7580,23.86,1111122 
COMPS,ioos:station:USF.COMPS:TAR:1,2010-12-01T03:18:00Z,28.1560,-82.7580,23.82,1111122 
COMPS,ioos:station:USF.COMPS:TAR:1,2010-12-01T03:24:00Z,28.1560,-82.7580,23.91,1111122 
COMPS,ioos:station:USF.COMPS:TAR:1,2010-12-01T03:30:00Z,28.1560,-82.7580,23.78,1111122 
COMPS,ioos:station:USF.COMPS:TAR:1,2010-12-01T03:36:00Z,28.1560,-82.7580,23.74,1111122 
COMPS,ioos:station:USF.COMPS:TAR:1,2010-12-01T03:42:00Z,28.1560,-82.7580,23.72,1111122 
COMPS,ioos:station:USF.COMPS:TAR:1,2010-12-01T03:48:00Z,28.1560,-82.7580,23.82,1111122 
COMPS,ioos:station:USF.COMPS:TAR:1,2010-12-01T03:54:00Z,28.1560,-82.7580,23.81,1111122 
COMPS,ioos:station:USF.COMPS:TAR:1,2010-12-01T04:00:00Z,28.1560,-82.7580,23.8,1111122 
COMPS,ioos:station:USF.COMPS:TAR:1,2010-12-01T04:06:00Z,28.1560,-82.7580,23.6,1111122 
COMPS,ioos:station:USF.COMPS:TAR:1,2010-12-01T04:12:00Z,28.1560,-82.7580,23.59,1111122 
COMPS,ioos:station:USF.COMPS:TAR:1,2010-12-01T04:18:00Z,28.1560,-82.7580,23.58,1111122 
COMPS,ioos:station:USF.COMPS:TAR:1,2010-12-01T04:24:00Z,28.1560,-82.7580,23.68,1111122 
COMPS,ioos:station:USF.COMPS:TAR:1,2010-12-01T04:30:00Z,28.1560,-82.7580,23.54,1111122 
COMPS,ioos:station:USF.COMPS:TAR:1,2010-12-01T04:36:00Z,28.1560,-82.7580,23.45,1111122 
COMPS,ioos:station:USF.COMPS:TAR:1,2010-12-01T04:42:00Z,28.1560,-82.7580,23.45,1111122 
COMPS,ioos:station:USF.COMPS:TAR:1,2010-12-01T04:48:00Z,28.1560,-82.7580,23.45,1111122 
COMPS,ioos:station:USF.COMPS:TAR:1,2010-12-01T04:54:00Z,28.1560,-82.7580,23.45,1111122 
COMPS,ioos:station:USF.COMPS:TAR:1,2010-12-01T05:00:00Z,28.1560,-82.7580,23.5,1111122 
COMPS,ioos:station:USF.COMPS:TAR:1,2010-12-01T05:06:00Z,28.1560,-82.7580,23.4,1111122 
COMPS,ioos:station:USF.COMPS:TAR:1,2010-12-01T05:12:00Z,28.1560,-82.7580,23.39,1111122 
COMPS,ioos:station:USF.COMPS:TAR:1,2010-12-01T05:18:00Z,28.1560,-82.7580,23.35,1111122 
COMPS,ioos:station:USF.COMPS:TAR:1,2010-12-01T05:24:00Z,28.1560,-82.7580,23.41,1111122 
COMPS,ioos:station:USF.COMPS:TAR:1,2010-12-01T05:30:00Z,28.1560,-82.7580,23.31,1111122 
COMPS,ioos:station:USF.COMPS:TAR:1,2010-12-01T05:36:00Z,28.1560,-82.7580,23.18,1111122 
COMPS,ioos:station:USF.COMPS:TAR:1,2010-12-01T05:42:00Z,28.1560,-82.7580,23.17,1111122 
COMPS,ioos:station:USF.COMPS:TAR:1,2010-12-01T05:48:00Z,28.1560,-82.7580,23.19,1111122 
COMPS,ioos:station:USF.COMPS:TAR:1,2010-12-01T05:54:00Z,28.1560,-82.7580,23.17,1111122 
COMPS,ioos:station:USF.COMPS:TAR:1,2010-12-01T06:00:00Z,28.1560,-82.7580,23.2,1111122 
COMPS,ioos:station:USF.COMPS:TAR:1,2010-12-01T06:06:00Z,28.1560,-82.7580,23.04,1111122 
COMPS,ioos:station:USF.COMPS:TAR:1,2010-12-01T06:12:00Z,28.1560,-82.7580,23.05,1111122 
COMPS,ioos:station:USF.COMPS:TAR:1,2010-12-01T06:18:00Z,28.1560,-82.7580,23.05,1111122 
COMPS,ioos:station:USF.COMPS:TAR:1,2010-12-01T06:24:00Z,28.1560,-82.7580,23.06,1111122 
COMPS,ioos:station:USF.COMPS:TAR:1,2010-12-01T06:30:00Z,28.1560,-82.7580,22.99,1111122 
COMPS,ioos:station:USF.COMPS:TAR:1,2010-12-01T06:36:00Z,28.1560,-82.7580,23.04,1111122 
COMPS,ioos:station:USF.COMPS:TAR:1,2010-12-01T06:42:00Z,28.1560,-82.7580,23.04,1111122 
COMPS,ioos:station:USF.COMPS:TAR:1,2010-12-01T06:48:00Z,28.1560,-82.7580,23.19,1111122 
COMPS,ioos:station:USF.COMPS:TAR:1,2010-12-01T06:54:00Z,28.1560,-82.7580,23.19,1111122 
COMPS,ioos:station:USF.COMPS:TAR:1,2010-12-01T07:00:00Z,28.1560,-82.7580,23.2,1111122 
COMPS,ioos:station:USF.COMPS:TAR:1,2010-12-01T07:06:00Z,28.1560,-82.7580,23.18,1111122 
COMPS,ioos:station:USF.COMPS:TAR:1,2010-12-01T07:12:00Z,28.1560,-82.7580,23.18,1111122 
COMPS,ioos:station:USF.COMPS:TAR:1,2010-12-01T07:18:00Z,28.1560,-82.7580,23.18,1111122 
COMPS,ioos:station:USF.COMPS:TAR:1,2010-12-01T07:24:00Z,28.1560,-82.7580,23.1,1111122 
COMPS,ioos:station:USF.COMPS:TAR:1,2010-12-01T07:30:00Z,28.1560,-82.7580,21.13,1111122 
COMPS,ioos:station:USF.COMPS:TAR:1,2010-12-01T07:36:00Z,28.1560,-82.7580,19.61,1111122 
COMPS,ioos:station:USF.COMPS:TAR:1,2010-12-01T07:42:00Z,28.1560,-82.7580,18.89,1111122 
COMPS,ioos:station:USF.COMPS:TAR:1,2010-12-01T07:48:00Z,28.1560,-82.7580,18.42,1111122 
COMPS,ioos:station:USF.COMPS:TAR:1,2010-12-01T07:54:00Z,28.1560,-82.7580,18.26,1111122 
COMPS,ioos:station:USF.COMPS:TAR:1,2010-12-01T08:00:00Z,28.1560,-82.7580,18.3,1111122 
COMPS,ioos:station:USF.COMPS:TAR:1,2010-12-01T08:06:00Z,28.1560,-82.7580,18.08,1111122 
COMPS,ioos:station:USF.COMPS:TAR:1,2010-12-01T08:12:00Z,28.1560,-82.7580,18.13,1111122 
COMPS,ioos:station:USF.COMPS:TAR:1,2010-12-01T08:18:00Z,28.1560,-82.7580,18.12,1111122 
COMPS,ioos:station:USF.COMPS:TAR:1,2010-12-01T08:24:00Z,28.1560,-82.7580,18.13,1111122 
COMPS,ioos:station:USF.COMPS:TAR:1,2010-12-01T08:30:00Z,28.1560,-82.7580,18.03,1111122 
COMPS,ioos:station:USF.COMPS:TAR:1,2010-12-01T08:36:00Z,28.1560,-82.7580,18.03,1111122 
COMPS,ioos:station:USF.COMPS:TAR:1,2010-12-01T08:42:00Z,28.1560,-82.7580,18.03,1111122 
COMPS,ioos:station:USF.COMPS:TAR:1,2010-12-01T08:48:00Z,28.1560,-82.7580,17.96,1111122 
COMPS,ioos:station:USF.COMPS:TAR:1,2010-12-01T08:54:00Z,28.1560,-82.7580,17.88,1111122 
COMPS,ioos:station:USF.COMPS:TAR:1,2010-12-01T09:00:00Z,28.1560,-82.7580,17.9,1111122 
COMPS,ioos:station:USF.COMPS:TAR:1,2010-12-01T09:06:00Z,28.1560,-82.7580,17.57,1111122 
COMPS,ioos:station:USF.COMPS:TAR:1,2010-12-01T09:12:00Z,28.1560,-82.7580,17.35,1111122 
COMPS,ioos:station:USF.COMPS:TAR:1,2010-12-01T09:18:00Z,28.1560,-82.7580,17.3,1111122 
COMPS,ioos:station:USF.COMPS:TAR:1,2010-12-01T09:24:00Z,28.1560,-82.7580,17.2,1111122 
COMPS,ioos:station:USF.COMPS:TAR:1,2010-12-01T09:30:00Z,28.1560,-82.7580,17.04,1111122 
COMPS,ioos:station:USF.COMPS:TAR:1,2010-12-01T09:36:00Z,28.1560,-82.7580,17.11,1111122 
COMPS,ioos:station:USF.COMPS:TAR:1,2010-12-01T09:42:00Z,28.1560,-82.7580,17.29,1111122 
COMPS,ioos:station:USF.COMPS:TAR:1,2010-12-01T09:48:00Z,28.1560,-82.7580,17.43,1111122 
COMPS,ioos:station:USF.COMPS:TAR:1,2010-12-01T09:54:00Z,28.1560,-82.7580,17.56,1111122 
COMPS,ioos:station:USF.COMPS:TAR:1,2010-12-01T10:00:00Z,28.1560,-82.7580,17.6,1111122 
COMPS,ioos:station:USF.COMPS:TAR:1,2010-12-01T10:06:00Z,28.1560,-82.7580,17.47,1111122 
COMPS,ioos:station:USF.COMPS:TAR:1,2010-12-01T10:12:00Z,28.1560,-82.7580,17.52,1111122 
COMPS,ioos:station:USF.COMPS:TAR:1,2010-12-01T10:18:00Z,28.1560,-82.7580,17.37,1111122 
COMPS,ioos:station:USF.COMPS:TAR:1,2010-12-01T10:24:00Z,28.1560,-82.7580,17.34,1111122 
COMPS,ioos:station:USF.COMPS:TAR:1,2010-12-01T10:30:00Z,28.1560,-82.7580,17.23,1111122 
COMPS,ioos:station:USF.COMPS:TAR:1,2010-12-01T10:36:00Z,28.1560,-82.7580,17.21,1111122 
COMPS,ioos:station:USF.COMPS:TAR:1,2010-12-01T10:42:00Z,28.1560,-82.7580,17.14,1111122 
COMPS,ioos:station:USF.COMPS:TAR:1,2010-12-01T10:48:00Z,28.1560,-82.7580,16.91,1111122 
COMPS,ioos:station:USF.COMPS:TAR:1,2010-12-01T10:54:00Z,28.1560,-82.7580,16.63,1111122 
COMPS,ioos:station:USF.COMPS:TAR:1,2010-12-01T11:00:00Z,28.1560,-82.7580,16.6,1111122 
COMPS,ioos:station:USF.COMPS:TAR:1,2010-12-01T11:06:00Z,28.1560,-82.7580,16.3,1111122 
COMPS,ioos:station:USF.COMPS:TAR:1,2010-12-01T11:12:00Z,28.1560,-82.7580,16.3,1111122 
COMPS,ioos:station:USF.COMPS:TAR:1,2010-12-01T11:18:00Z,28.1560,-82.7580,16.27,1111122 
COMPS,ioos:station:USF.COMPS:TAR:1,2010-12-01T11:24:00Z,28.1560,-82.7580,16.37,1111122 
COMPS,ioos:station:USF.COMPS:TAR:1,2010-12-01T11:30:00Z,28.1560,-82.7580,16.3,1111122 
COMPS,ioos:station:USF.COMPS:TAR:1,2010-12-01T11:36:00Z,28.1560,-82.7580,16.32,1111122 
COMPS,ioos:station:USF.COMPS:TAR:1,2010-12-01T11:42:00Z,28.1560,-82.7580,16.37,1111122 
COMPS,ioos:station:USF.COMPS:TAR:1,2010-12-01T11:48:00Z,28.1560,-82.7580,16.44,1111122 
COMPS,ioos:station:USF.COMPS:TAR:1,2010-12-01T11:54:00Z,28.1560,-82.7580,16.45,1111122 
COMPS,ioos:station:USF.COMPS:TAR:1,2010-12-01T12:00:00Z,28.1560,-82.7580,16.5,1111122 
COMPS,ioos:station:USF.COMPS:TAR:1,2010-12-01T14:00:00Z,28.1560,-82.7580,16.9,1111122 
COMPS,ioos:station:USF.COMPS:TAR:1,2010-12-01T15:00:00Z,28.1560,-82.7580,16.7,1111122 
COMPS,ioos:station:USF.COMPS:TAR:1,2010-12-01T15:06:00Z,28.1560,-82.7580,16.57,1111122 
COMPS,ioos:station:USF.COMPS:TAR:1,2010-12-01T15:12:00Z,28.1560,-82.7580,16.86,1111122 
COMPS,ioos:station:USF.COMPS:TAR:1,2010-12-01T15:18:00Z,28.1560,-82.7580,17.28,1111122 
COMPS,ioos:station:USF.COMPS:TAR:1,2010-12-01T15:24:00Z,28.1560,-82.7580,17.24,1111122 
COMPS,ioos:station:USF.COMPS:TAR:1,2010-12-01T15:30:00Z,28.1560,-82.7580,16.55,1111122 
COMPS,ioos:station:USF.COMPS:TAR:1,2010-12-01T15:36:00Z,28.1560,-82.7580,16.77,1111122 
COMPS,ioos:station:USF.COMPS:TAR:1,2010-12-01T15:42:00Z,28.1560,-82.7580,16.58,1111122 
COMPS,ioos:station:USF.COMPS:TAR:1,2010-12-01T15:48:00Z,28.1560,-82.7580,16.49,1111122 
COMPS,ioos:station:USF.COMPS:TAR:1,2010-12-01T15:54:00Z,28.1560,-82.7580,16.41,1111122 
COMPS,ioos:station:USF.COMPS:TAR:1,2010-12-01T16:00:00Z,28.1560,-82.7580,16.4,1111122 
COMPS,ioos:station:USF.COMPS:TAR:1,2010-12-01T16:06:00Z,28.1560,-82.7580,15.95,1111122 
COMPS,ioos:station:USF.COMPS:TAR:1,2010-12-01T16:12:00Z,28.1560,-82.7580,15.64,1111122 
COMPS,ioos:station:USF.COMPS:TAR:1,2010-12-01T16:18:00Z,28.1560,-82.7580,15.67,1111122 
COMPS,ioos:station:USF.COMPS:TAR:1,2010-12-01T16:24:00Z,28.1560,-82.7580,15.68,1111122 
COMPS,ioos:station:USF.COMPS:TAR:1,2010-12-01T16:30:00Z,28.1560,-82.7580,14.95,1111122 
COMPS,ioos:station:USF.COMPS:TAR:1,2010-12-01T16:36:00Z,28.1560,-82.7580,15.06,1111122 
COMPS,ioos:station:USF.COMPS:TAR:1,2010-12-01T16:42:00Z,28.1560,-82.7580,15.46,1111122 
COMPS,ioos:station:USF.COMPS:TAR:1,2010-12-01T16:48:00Z,28.1560,-82.7580,15.81,1111122 
COMPS,ioos:station:USF.COMPS:TAR:1,2010-12-01T16:54:00Z,28.1560,-82.7580,15.63,1111122 
COMPS,ioos:station:USF.COMPS:TAR:1,2010-12-01T17:00:00Z,28.1560,-82.7580,15.6,1111122 
COMPS,ioos:station:USF.COMPS:TAR:1,2010-12-01T17:06:00Z,28.1560,-82.7580,15.52,1111122 
COMPS,ioos:station:USF.COMPS:TAR:1,2010-12-01T17:12:00Z,28.1560,-82.7580,15.19,1111122 
COMPS,ioos:station:USF.COMPS:TAR:1,2010-12-01T17:18:00Z,28.1560,-82.7580,14.81,1111122 
COMPS,ioos:station:USF.COMPS:TAR:1,2010-12-01T17:24:00Z,28.1560,-82.7580,15.53,1111122 
COMPS,ioos:station:USF.COMPS:TAR:1,2010-12-01T17:30:00Z,28.1560,-82.7580,15.65,1111122 
COMPS,ioos:station:USF.COMPS:TAR:1,2010-12-01T17:36:00Z,28.1560,-82.7580,15.69,1111122 
COMPS,ioos:station:USF.COMPS:TAR:1,2010-12-01T17:42:00Z,28.1560,-82.7580,15.32,1111122 
COMPS,ioos:station:USF.COMPS:TAR:1,2010-12-01T17:48:00Z,28.1560,-82.7580,15.35,1111122 
COMPS,ioos:station:USF.COMPS:TAR:1,2010-12-01T17:54:00Z,28.1560,-82.7580,15.73,1111122 
COMPS,ioos:station:USF.COMPS:TAR:1,2010-12-01T18:00:00Z,28.1560,-82.7580,15.7,1111122 
COMPS,ioos:station:USF.COMPS:TAR:1,2010-12-01T18:06:00Z,28.1560,-82.7580,15.34,1111122 
COMPS,ioos:station:USF.COMPS:TAR:1,2010-12-01T18:12:00Z,28.1560,-82.7580,14.94,1111122 
COMPS,ioos:station:USF.COMPS:TAR:1,2010-12-01T18:18:00Z,28.1560,-82.7580,15.2,1111122 
COMPS,ioos:station:USF.COMPS:TAR:1,2010-12-01T18:24:00Z,28.1560,-82.7580,15.13,1111122 
COMPS,ioos:station:USF.COMPS:TAR:1,2010-12-01T18:30:00Z,28.1560,-82.7580,15.19,1111122 
COMPS,ioos:station:USF.COMPS:TAR:1,2010-12-01T18:36:00Z,28.1560,-82.7580,15.12,1111122 
COMPS,ioos:station:USF.COMPS:TAR:1,2010-12-01T18:42:00Z,28.1560,-82.7580,15.23,1111122 
COMPS,ioos:station:USF.COMPS:TAR:1,2010-12-01T18:48:00Z,28.1560,-82.7580,15.18,1111122 
COMPS,ioos:station:USF.COMPS:TAR:1,2010-12-01T18:54:00Z,28.1560,-82.7580,15.2,1111122 
COMPS,ioos:station:USF.COMPS:TAR:1,2010-12-01T19:00:00Z,28.1560,-82.7580,15.2,1111122 
COMPS,ioos:station:USF.COMPS:TAR:1,2010-12-01T19:06:00Z,28.1560,-82.7580,15.39,1111122 
COMPS,ioos:station:USF.COMPS:TAR:1,2010-12-01T19:12:00Z,28.1560,-82.7580,15.37,1111122 
COMPS,ioos:station:USF.COMPS:TAR:1,2010-12-01T19:18:00Z,28.1560,-82.7580,15.54,1111122 
COMPS,ioos:station:USF.COMPS:TAR:1,2010-12-01T19:24:00Z,28.1560,-82.7580,15.58,1111122 
COMPS,ioos:station:USF.COMPS:TAR:1,2010-12-01T19:30:00Z,28.1560,-82.7580,15.44,1111122 
COMPS,ioos:station:USF.COMPS:TAR:1,2010-12-01T19:36:00Z,28.1560,-82.7580,15.42,1111122 
COMPS,ioos:station:USF.COMPS:TAR:1,2010-12-01T19:42:00Z,28.1560,-82.7580,15.26,1111122 
COMPS,ioos:station:USF.COMPS:TAR:1,2010-12-01T19:48:00Z,28.1560,-82.7580,15.27,1111122 
COMPS,ioos:station:USF.COMPS:TAR:1,2010-12-01T19:54:00Z,28.1560,-82.7580,15.3,1111122 
COMPS,ioos:station:USF.COMPS:TAR:1,2010-12-01T20:00:00Z,28.1560,-82.7580,15.3,1111122 
COMPS,ioos:station:USF.COMPS:TAR:1,2010-12-01T20:06:00Z,28.1560,-82.7580,15.23,1111122 
COMPS,ioos:station:USF.COMPS:TAR:1,2010-12-01T20:12:00Z,28.1560,-82.7580,15.25,1111122 
COMPS,ioos:station:USF.COMPS:TAR:1,2010-12-01T20:18:00Z,28.1560,-82.7580,15.0,1111122 
COMPS,ioos:station:USF.COMPS:TAR:1,2010-12-01T20:24:00Z,28.1560,-82.7580,14.97,1111122 
COMPS,ioos:station:USF.COMPS:TAR:1,2010-12-01T20:30:00Z,28.1560,-82.7580,14.96,1111122 
COMPS,ioos:station:USF.COMPS:TAR:1,2010-12-01T20:36:00Z,28.1560,-82.7580,15.0,1111122 
COMPS,ioos:station:USF.COMPS:TAR:1,2010-12-01T20:42:00Z,28.1560,-82.7580,14.94,1111122 
COMPS,ioos:station:USF.COMPS:TAR:1,2010-12-01T20:48:00Z,28.1560,-82.7580,14.96,1111122 
COMPS,ioos:station:USF.COMPS:TAR:1,2010-12-01T20:54:00Z,28.1560,-82.7580,14.77,1111122 
COMPS,ioos:station:USF.COMPS:TAR:1,2010-12-01T21:00:00Z,28.1560,-82.7580,14.8,1111122 
COMPS,ioos:station:USF.COMPS:TAR:1,2010-12-01T21:06:00Z,28.1560,-82.7580,14.74,1111122 
COMPS,ioos:station:USF.COMPS:TAR:1,2010-12-01T21:12:00Z,28.1560,-82.7580,14.79,1111122 
COMPS,ioos:station:USF.COMPS:TAR:1,2010-12-01T21:18:00Z,28.1560,-82.7580,14.67,1111122 
COMPS,ioos:station:USF.COMPS:TAR:1,2010-12-01T21:24:00Z,28.1560,-82.7580,14.72,1111122 
COMPS,ioos:station:USF.COMPS:TAR:1,2010-12-01T21:30:00Z,28.1560,-82.7580,14.75,1111122 
COMPS,ioos:station:USF.COMPS:TAR:1,2010-12-01T21:36:00Z,28.1560,-82.7580,14.67,1111122 
COMPS,ioos:station:USF.COMPS:TAR:1,2010-12-01T21:42:00Z,28.1560,-82.7580,14.67,1111122 
COMPS,ioos:station:USF.COMPS:TAR:1,2010-12-01T21:48:00Z,28.1560,-82.7580,14.67,1111122 
COMPS,ioos:station:USF.COMPS:TAR:1,2010-12-01T21:54:00Z,28.1560,-82.7580,14.62,1111122 
COMPS,ioos:station:USF.COMPS:TAR:1,2010-12-01T22:00:00Z,28.1560,-82.7580,14.6,1111122 
COMPS,ioos:station:USF.COMPS:TAR:1,2010-12-01T22:06:00Z,28.1560,-82.7580,14.44,1111122 
COMPS,ioos:station:USF.COMPS:TAR:1,2010-12-01T22:12:00Z,28.1560,-82.7580,14.37,1111122 
COMPS,ioos:station:USF.COMPS:TAR:1,2010-12-01T22:18:00Z,28.1560,-82.7580,14.3,1111122 
COMPS,ioos:station:USF.COMPS:TAR:1,2010-12-01T22:24:00Z,28.1560,-82.7580,14.2,1111122 
COMPS,ioos:station:USF.COMPS:TAR:1,2010-12-01T22:30:00Z,28.1560,-82.7580,14.04,1111122 
COMPS,ioos:station:USF.COMPS:TAR:1,2010-12-01T22:36:00Z,28.1560,-82.7580,13.94,1111122 
COMPS,ioos:station:USF.COMPS:TAR:1,2010-12-01T22:42:00Z,28.1560,-82.7580,13.83,1111122 
COMPS,ioos:station:USF.COMPS:TAR:1,2010-12-01T22:48:00Z,28.1560,-82.7580,13.82,1111122 
COMPS,ioos:station:USF.COMPS:TAR:1,2010-12-01T22:54:00Z,28.1560,-82.7580,13.72,1111122 
COMPS,ioos:station:USF.COMPS:TAR:1,2010-12-01T23:00:00Z,28.1560,-82.7580,13.7,1111122 
COMPS,ioos:station:USF.COMPS:TAR:1,2010-12-01T23:06:00Z,28.1560,-82.7580,13.72,1111122 
COMPS,ioos:station:USF.COMPS:TAR:1,2010-12-01T23:12:00Z,28.1560,-82.7580,13.61,1111122 
COMPS,ioos:station:USF.COMPS:TAR:1,2010-12-01T23:18:00Z,28.1560,-82.7580,13.67,1111122 
COMPS,ioos:station:USF.COMPS:TAR:1,2010-12-01T23:24:00Z,28.1560,-82.7580,13.75,1111122 
COMPS,ioos:station:USF.COMPS:TAR:1,2010-12-01T23:30:00Z,28.1560,-82.7580,13.85,1111122 
COMPS,ioos:station:USF.COMPS:TAR:1,2010-12-01T23:36:00Z,28.1560,-82.7580,13.82,1111122 
COMPS,ioos:station:USF.COMPS:TAR:1,2010-12-01T23:42:00Z,28.1560,-82.7580,13.73,1111122 
COMPS,ioos:station:USF.COMPS:TAR:1,2010-12-01T23:48:00Z,28.1560,-82.7580,13.72,1111122 
COMPS,ioos:station:USF.COMPS:TAR:1,2010-12-01T23:54:00Z,28.1560,-82.7580,13.74,1111122 
COMPS,ioos:station:USF.COMPS:TAR:1,2010-12-02T00:00:00Z,28.1560,-82.7580,13.7,1111122 
COMPS,ioos:station:USF.COMPS:TAR:1,2010-12-02T00:06:00Z,28.1560,-82.7580,13.83,1111122 
COMPS,ioos:station:USF.COMPS:TAR:1,2010-12-02T00:12:00Z,28.1560,-82.7580,13.72,1111122 
COMPS,ioos:station:USF.COMPS:TAR:1,2010-12-02T00:18:00Z,28.1560,-82.7580,13.74,1111122 
COMPS,ioos:station:USF.COMPS:TAR:1,2010-12-02T00:24:00Z,28.1560,-82.7580,13.74,1111122 
COMPS,ioos:station:USF.COMPS:TAR:1,2010-12-02T00:30:00Z,28.1560,-82.7580,13.74,1111122 
COMPS,ioos:station:USF.COMPS:TAR:1,2010-12-02T00:36:00Z,28.1560,-82.7580,13.7,1111122 
COMPS,ioos:station:USF.COMPS:TAR:1,2010-12-02T00:42:00Z,28.1560,-82.7580,13.6,1111122 
COMPS,ioos:station:USF.COMPS:TAR:1,2010-12-02T00:48:00Z,28.1560,-82.7580,13.6,1111122 
COMPS,ioos:station:USF.COMPS:TAR:1,2010-12-02T00:54:00Z,28.1560,-82.7580,13.66,1111122 
COMPS,ioos:station:USF.COMPS:TAR:1,2010-12-02T01:00:00Z,28.1560,-82.7580,13.7,1111122 
COMPS,ioos:station:USF.COMPS:TAR:1,2010-12-02T01:06:00Z,28.1560,-82.7580,13.66,1111122 
COMPS,ioos:station:USF.COMPS:TAR:1,2010-12-02T01:12:00Z,28.1560,-82.7580,13.72,1111122 
COMPS,ioos:station:USF.COMPS:TAR:1,2010-12-02T01:18:00Z,28.1560,-82.7580,13.71,1111122 
COMPS,ioos:station:USF.COMPS:TAR:1,2010-12-02T01:24:00Z,28.1560,-82.7580,13.8,1111122 
COMPS,ioos:station:USF.COMPS:TAR:1,2010-12-02T01:30:00Z,28.1560,-82.7580,13.84,1111122 
COMPS,ioos:station:USF.COMPS:TAR:1,2010-12-02T01:36:00Z,28.1560,-82.7580,13.82,1111122 
COMPS,ioos:station:USF.COMPS:TAR:1,2010-12-02T01:42:00Z,28.1560,-82.7580,13.72,1111122 
COMPS,ioos:station:USF.COMPS:TAR:1,2010-12-02T01:48:00Z,28.1560,-82.7580,13.75,1111122 
COMPS,ioos:station:USF.COMPS:TAR:1,2010-12-02T01:54:00Z,28.1560,-82.7580,13.7,1111122 
COMPS,ioos:station:USF.COMPS:TAR:1,2010-12-02T02:00:00Z,28.1560,-82.7580,13.7,1111122 
COMPS,ioos:station:USF.COMPS:TAR:1,2010-12-02T02:06:00Z,28.1560,-82.7580,13.65,1111122 
COMPS,ioos:station:USF.COMPS:TAR:1,2010-12-02T02:12:00Z,28.1560,-82.7580,13.48,1111122 
COMPS,ioos:station:USF.COMPS:TAR:1,2010-12-02T02:18:00Z,28.1560,-82.7580,12.93,1111122 
COMPS,ioos:station:USF.COMPS:TAR:1,2010-12-02T02:24:00Z,28.1560,-82.7580,12.35,1111122 
COMPS,ioos:station:USF.COMPS:TAR:1,2010-12-02T02:30:00Z,28.1560,-82.7580,11.99,1111122 
COMPS,ioos:station:USF.COMPS:TAR:1,2010-12-02T02:36:00Z,28.1560,-82.7580,11.72,1111122 
COMPS,ioos:station:USF.COMPS:TAR:1,2010-12-02T02:42:00Z,28.1560,-82.7580,11.54,1111122 
COMPS,ioos:station:USF.COMPS:TAR:1,2010-12-02T02:48:00Z,28.1560,-82.7580,11.48,1111122 
COMPS,ioos:station:USF.COMPS:TAR:1,2010-12-02T02:54:00Z,28.1560,-82.7580,11.26,1111122 
COMPS,ioos:station:USF.COMPS:TAR:1,2010-12-02T03:00:00Z,28.1560,-82.7580,11.3,1111122 
COMPS,ioos:station:USF.COMPS:TAR:1,2010-12-02T03:06:00Z,28.1560,-82.7580,10.78,1111122 
COMPS,ioos:station:USF.COMPS:TAR:1,2010-12-02T03:12:00Z,28.1560,-82.7580,10.56,1111122 
COMPS,ioos:station:USF.COMPS:TAR:1,2010-12-02T03:18:00Z,28.1560,-82.7580,10.37,1111122 
COMPS,ioos:station:USF.COMPS:TAR:1,2010-12-02T03:24:00Z,28.1560,-82.7580,10.24,1111122 
COMPS,ioos:station:USF.COMPS:TAR:1,2010-12-02T03:30:00Z,28.1560,-82.7580,10.14,1111122 
COMPS,ioos:station:USF.COMPS:TAR:1,2010-12-02T03:36:00Z,28.1560,-82.7580,10.06,1111122 
COMPS,ioos:station:USF.COMPS:TAR:1,2010-12-02T03:42:00Z,28.1560,-82.7580,9.93,1111122 
COMPS,ioos:station:USF.COMPS:TAR:1,2010-12-02T03:48:00Z,28.1560,-82.7580,9.8,1111122 
COMPS,ioos:station:USF.COMPS:TAR:1,2010-12-02T03:54:00Z,28.1560,-82.7580,9.9,1111122 
COMPS,ioos:station:USF.COMPS:TAR:1,2010-12-02T04:00:00Z,28.1560,-82.7580,9.9,1111122 
COMPS,ioos:station:USF.COMPS:TAR:1,2010-12-02T04:06:00Z,28.1560,-82.7580,9.85,1111122 
COMPS,ioos:station:USF.COMPS:TAR:1,2010-12-02T04:12:00Z,28.1560,-82.7580,9.78,1111122 
COMPS,ioos:station:USF.COMPS:TAR:1,2010-12-02T04:18:00Z,28.1560,-82.7580,9.68,1111122 
COMPS,ioos:station:USF.COMPS:TAR:1,2010-12-02T04:24:00Z,28.1560,-82.7580,9.69,1111122 
COMPS,ioos:station:USF.COMPS:TAR:1,2010-12-02T04:30:00Z,28.1560,-82.7580,9.61,1111122 
COMPS,ioos:station:USF.COMPS:TAR:1,2010-12-02T04:36:00Z,28.1560,-82.7580,9.55,1111122 
COMPS,ioos:station:USF.COMPS:TAR:1,2010-12-02T04:42:00Z,28.1560,-82.7580,9.43,1111122 
COMPS,ioos:station:USF.COMPS:TAR:1,2010-12-02T04:48:00Z,28.1560,-82.7580,9.4,1111122 
COMPS,ioos:station:USF.COMPS:TAR:1,2010-12-02T04:54:00Z,28.1560,-82.7580,9.38,1111122 
COMPS,ioos:station:USF.COMPS:TAR:1,2010-12-02T05:00:00Z,28.1560,-82.7580,9.4,1111122 
COMPS,ioos:station:USF.COMPS:TAR:1,2010-12-02T05:06:00Z,28.1560,-82.7580,9.27,1111122 
COMPS,ioos:station:USF.COMPS:TAR:1,2010-12-02T05:12:00Z,28.1560,-82.7580,9.28,1111122 
COMPS,ioos:station:USF.COMPS:TAR:1,2010-12-02T05:18:00Z,28.1560,-82.7580,9.27,1111122 
COMPS,ioos:station:USF.COMPS:TAR:1,2010-12-02T05:24:00Z,28.1560,-82.7580,9.2,1111122 
COMPS,ioos:station:USF.COMPS:TAR:1,2010-12-02T05:30:00Z,28.1560,-82.7580,9.08,1111122 
COMPS,ioos:station:USF.COMPS:TAR:1,2010-12-02T05:36:00Z,28.1560,-82.7580,9.03,1111122 
COMPS,ioos:station:USF.COMPS:TAR:1,2010-12-02T05:42:00Z,28.1560,-82.7580,8.97,1111122 
COMPS,ioos:station:USF.COMPS:TAR:1,2010-12-02T05:48:00Z,28.1560,-82.7580,8.91,1111122 
COMPS,ioos:station:USF.COMPS:TAR:1,2010-12-02T05:54:00Z,28.1560,-82.7580,8.87,1111122 